[[{"header":{"parameterUnit":"m.s-1","parameterCategory":1,"la1":30.2991,"la2":30.254,"lo1":-89.0895,"lo2":-89.0444,"dy":0.0017,"dx":0.0017,"nx":28,"ny":28,"refTime":"2025-08-29T21:00:00:Z","depth":0,"parameterNumber":2,"parameterNumberName":"U-component_of_WINDS"},"data":[0,0,0,0,0,0,0,0,0,0,0,0,0,0,0,0,0,0,0,0,0,0,0,0,0,0,0,0,0,0,0,0,0,0,0,0,0,0,0,0,0,0,0,0,0,0,0,0,0,0,0,0,0,0,0,0,0,0,0.0213,0.0213,0,0.0214,0.0214,0.0214,0.0204,0.0204,0.0204,0.0204,0.0207,0.0207,0.0207,0,0,0,0,0,0,0,0,0,0,0,0,0,0.0204,0.0204,0.0213,0.0213,0.0213,0.0214,0.0214,0.0214,0.0204,0.0204,0.0204,0.0203,0.0206,0.0207,0.0207,0,0,0,0,0,0,0,0,0,0,0,0,0,0.0207,0.0204,0.0213,0.0208,0.0208,0.0214,0.0214,0.0214,0.0205,0.0204,0.0204,0.0203,0.0206,0.0207,0.0207,0.0218,0,0,0.0209,0.0209,0,0,0,0,0,0,0,0,0.0206,0.0207,0.0209,0.0208,0.0208,0.0209,0.0212,0.0216,0.0205,0.0206,0.0204,0.0203,0.0208,0.0208,0.0209,0.0219,0.0219,0.0209,0.0209,0.0209,0.021,0,0,0,0,0,0,0,0.0206,0.0207,0.0213,0.0209,0.0208,0.0206,0.0206,0.0212,0.0209,0.0206,0.0205,0.0205,0.0207,0.0209,0.0209,0.0219,0.0209,0.0209,0.021,0.021,0.0238,0.0238,0,0,0,0,0,0,0.0206,0.0207,0.0213,0.0213,0.0206,0.0207,0.0207,0.0209,0.0209,0.0209,0.0205,0.0205,0.0208,0.0209,0.0209,0.0223,0.0209,0.021,0.021,0.0237,0.0238,0.0238,0,0,0,0,0,0,0.0206,0.0207,0.0213,0.021,0.021,0.0208,0.021,0.0209,0.021,0.0209,0.0208,0.0207,0.0208,0.0209,0.0216,0.0223,0.021,0.0211,0.0237,0.0237,0.0238,0.025,0,0,0,0,0,0,0.0206,0.0207,0.0211,0.021,0.0211,0.022,0.021,0.0209,0.0211,0.021,0.021,0.021,0.0208,0.0215,0.0217,0.0223,0.0211,0.0236,0.0237,0.0238,0.0249,0.0251,0.0252,0,0,0,0,0,0.0206,0.0215,0.0211,0.0212,0.0215,0.022,0.0221,0.0217,0.0212,0.0216,0.0215,0.021,0.0221,0.0216,0.0218,0.0224,0.0236,0.0237,0.0238,0.0248,0.025,0.0252,0,0,0,0,0,0,0.0218,0.0215,0.0211,0.022,0.022,0.0219,0.0224,0.0219,0.0222,0.0221,0.0217,0.0217,0.0225,0.0225,0.022,0.0235,0.0228,0.0229,0.0235,0.0237,0.0239,0.0239,0.0211,0,0,0,0,0,0.0221,0.0225,0.0222,0.023,0.023,0.0227,0.0229,0.0226,0.0226,0.0227,0.0226,0.0228,0.0231,0.0234,0.0238,0.0248,0.0249,0.0253,0.0255,0.0257,0.0258,0.0264,0.0267,0.0241,0.0241,0.0241,0,0,0.0229,0.0227,0.023,0.0232,0.0232,0.0237,0.0227,0.0232,0.0236,0.0228,0.0235,0.0235,0.0236,0.0245,0.0249,0.0245,0.0265,0.0258,0.0259,0.026,0.0265,0.0268,0.027,0.0242,0.0242,0.0242,0,0,0.0245,0.0244,0.025,0.025,0.025,0.0248,0.025,0.0248,0.0248,0.0255,0.0249,0.0253,0.0259,0.0261,0.0262,0.0278,0.0274,0.0279,0.0289,0.0294,0.0296,0.0298,0.0305,0.0307,0.028,0.028,0.028,0,0.0254,0.026,0.0255,0.026,0.0261,0.0253,0.026,0.0261,0.0262,0.0263,0.0259,0.0267,0.0267,0.0277,0.028,0.0281,0.0284,0.0279,0.0296,0.0298,0.03,0.0306,0.0308,0.0281,0.0281,0.0281,0.0281,0,0.0272,0.0276,0.0282,0.0283,0.0284,0.029,0.0286,0.0289,0.0285,0.0283,0.0291,0.029,0.0294,0.0295,0.0292,0.0305,0.0302,0.0297,0.029,0.0303,0.0309,0.0311,0.0282,0.0281,0.0281,0.0281,0,0,0.0297,0.0294,0.0296,0.0297,0.0295,0.0299,0.0304,0.0307,0.031,0.031,0.0316,0.0321,0.0316,0.0318,0.0314,0.0319,0.0332,0.0314,0.0314,0.0318,0.0347,0.0351,0.0354,0.0329,0.033,0.033,0.0347,0,0.0313,0.0323,0.0318,0.0328,0.0332,0.0324,0.0329,0.0329,0.0327,0.0331,0.0329,0.0333,0.0326,0.0327,0.0331,0.033,0.0338,0.0328,0.0335,0.0335,0.0336,0.0357,0.0362,0.0378,0.0349,0.0349,0.035,0,0.0334,0.0335,0.0346,0.0344,0.0345,0.035,0.0352,0.0355,0.0355,0.0353,0.0354,0.035,0.0356,0.0347,0.0356,0.0349,0.0351,0.0351,0.0352,0.0353,0.0344,0.036,0.0383,0.0386,0.0353,0.0352,0.0352,0,0.0352,0.0356,0.0363,0.0364,0.0361,0.0365,0.0364,0.0363,0.0365,0.0367,0.0368,0.037,0.0372,0.0374,0.0371,0.0365,0.038,0.0371,0.0379,0.038,0.0384,0.0384,0.0409,0.0384,0.0383,0.0383,0.0383,0,0.0372,0.0379,0.0371,0.0376,0.0383,0.0377,0.0385,0.0383,0.0383,0.0387,0.038,0.0385,0.0379,0.0383,0.038,0.0388,0.0388,0.0388,0.0387,0.0389,0.0389,0.0391,0.0391,0.0384,0.0384,0.0384,0.0384,0,0.0394,0.0389,0.0396,0.0393,0.0392,0.0398,0.0396,0.04,0.0397,0.0403,0.0404,0.0399,0.0404,0.04,0.0404,0.0402,0.0412,0.041,0.0412,0.0412,0.0421,0.0421,0.0449,0.0453,0.0424,0.0424,0.0424,0,0.0408,0.0413,0.041,0.0412,0.0411,0.0415,0.0416,0.041,0.0412,0.0412,0.0416,0.042,0.0422,0.0429,0.0427,0.043,0.0428,0.0437,0.0428,0.043,0.0429,0.0429,0.043,0.044,0.044,0.044,0.0441,0,0.0432,0.0429,0.0432,0.0433,0.0435,0.0436,0.0436,0.0438,0.0432,0.0435,0.0438,0.044,0.0444,0.0447,0.0449,0.0449,0.0444,0.0443,0.0445,0.0448,0.045,0.045,0.0419,0.0443,0.0443,0.0443,0.0442,0.0442,0.0451,0.0455,0.0454,0.0457,0.0456,0.0457,0.046,0.0458,0.046,0.0463,0.0459,0.0463,0.0463,0.0465,0.0465,0.0469,0.0466,0.0469,0.047,0.0471,0.0473,0.0448,0.047,0.047,0.047,0.0469,0.0469,0,0.0476,0.0475,0.0477,0.0478,0.048,0.0474,0.0474,0.0476,0.048,0.048,0.0482,0.0486,0.049,0.0487,0.049,0.0494,0.0492,0.0495,0.0495,0.0495,0.0475,0.0474,0.0497,0.0497,0.0497,0.0497,0.0497,0.0497,0.049,0.0497,0.0494,0.05,0.0499,0.0503,0.0504,0.0504,0.0504,0.0509,0.0511,0.0509,0.0508,0.0511,0.0514,0.0513,0.0515,0.0519,0.0518,0.0499,0.0497,0.0494,0.0493,0.0519,0.0519,0.0537,0.0538,0.0538]},{"header":{"parameterUnit":"m.s-1","parameterCategory":1,"la1":30.2991,"la2":30.254,"lo1":-89.0895,"lo2":-89.0444,"dy":0.0017,"dx":0.0017,"nx":28,"ny":28,"refTime":"2025-08-29T21:00:00:Z","depth":0,"parameterNumber":3,"parameterNumberName":"V-component_of_WINDS"},"data":[0,0,0,0,0,0,0,0,0,0,0,0,0,0,0,0,0,0,0,0,0,0,0,0,0,0,0,0,0,0,0,0,0,0,0,0,0,0,0,0,0,0,0,0,0,0,0,0,0,0,0,0,0,0,0,0,0,0,-1.3016,-1.3017,0,-1.3115,-1.3116,-1.3117,-1.3177,-1.3178,-1.3178,-1.3178,-1.3283,-1.3285,-1.3288,0,0,0,0,0,0,0,0,0,0,0,0,0,-1.2882,-1.2884,-1.3016,-1.3017,-1.3018,-1.3115,-1.3116,-1.3117,-1.3177,-1.3178,-1.3178,-1.3178,-1.3282,-1.3285,-1.3288,0,0,0,0,0,0,0,0,0,0,0,0,0,-1.2957,-1.2885,-1.3016,-1.306,-1.3065,-1.3114,-1.3116,-1.3118,-1.3177,-1.3178,-1.3178,-1.3178,-1.3281,-1.3285,-1.3288,-1.3303,0,0,-1.33,-1.3301,0,0,0,0,0,0,0,0,-1.2952,-1.2961,-1.3052,-1.3057,-1.3062,-1.3134,-1.3107,-1.318,-1.3177,-1.3134,-1.3178,-1.3179,-1.3233,-1.3241,-1.3259,-1.3308,-1.3312,-1.33,-1.3302,-1.3304,-1.3305,0,0,0,0,0,0,0,-1.2947,-1.2958,-1.3055,-1.3053,-1.3059,-1.3076,-1.3087,-1.3121,-1.318,-1.3138,-1.3143,-1.3154,-1.3236,-1.3255,-1.3261,-1.3314,-1.33,-1.3303,-1.3306,-1.3307,-1.3382,-1.3382,0,0,0,0,0,0,-1.2934,-1.2953,-1.3052,-1.3058,-1.3007,-1.3078,-1.309,-1.3111,-1.318,-1.3191,-1.3153,-1.3156,-1.3248,-1.3257,-1.3265,-1.3288,-1.3304,-1.3308,-1.331,-1.3382,-1.3382,-1.3382,0,0,0,0,0,0,-1.2931,-1.2943,-1.3048,-1.3007,-1.3021,-1.308,-1.3102,-1.3112,-1.3131,-1.3191,-1.3202,-1.3161,-1.3249,-1.326,-1.3293,-1.3292,-1.3309,-1.3313,-1.3383,-1.3382,-1.3382,-1.3332,0,0,0,0,0,0,-1.2927,-1.2941,-1.2946,-1.3006,-1.3023,-1.3073,-1.3102,-1.3114,-1.3137,-1.3142,-1.3202,-1.3212,-1.325,-1.3287,-1.3297,-1.3298,-1.3316,-1.3383,-1.3382,-1.3382,-1.3334,-1.333,-1.3326,0,0,0,0,0,-1.2922,-1.2929,-1.2946,-1.2958,-1.3031,-1.3072,-1.3082,-1.3125,-1.3137,-1.3143,-1.3182,-1.321,-1.3291,-1.329,-1.3302,-1.3303,-1.3383,-1.3383,-1.3382,-1.3336,-1.3331,-1.3327,0,0,0,0,0,0,-1.2868,-1.2937,-1.2957,-1.2983,-1.3021,-1.3082,-1.3092,-1.3118,-1.3154,-1.3157,-1.321,-1.3223,-1.3251,-1.3281,-1.3279,-1.3322,-1.334,-1.3342,-1.3301,-1.3297,-1.3293,-1.3285,-1.3319,0,0,0,0,0,-1.2859,-1.2886,-1.2946,-1.2963,-1.2981,-1.3033,-1.3053,-1.3082,-1.3124,-1.3141,-1.3182,-1.3223,-1.3258,-1.3279,-1.3314,-1.3339,-1.3354,-1.3346,-1.3342,-1.3339,-1.334,-1.3356,-1.3353,-1.338,-1.338,-1.338,0,0,-1.284,-1.2882,-1.2896,-1.2953,-1.2986,-1.3014,-1.3046,-1.3074,-1.3095,-1.3146,-1.3179,-1.3211,-1.326,-1.3289,-1.3304,-1.3315,-1.3336,-1.3338,-1.3335,-1.3338,-1.3355,-1.3352,-1.335,-1.3379,-1.3379,-1.3379,0,0,-1.2821,-1.2855,-1.2873,-1.2905,-1.2955,-1.2989,-1.2994,-1.3051,-1.3074,-1.3108,-1.3147,-1.3174,-1.3232,-1.3266,-1.3291,-1.3285,-1.3313,-1.3296,-1.3276,-1.3291,-1.3289,-1.3287,-1.3286,-1.3285,-1.3296,-1.3296,-1.3296,0,-1.2792,-1.2834,-1.2879,-1.2905,-1.2929,-1.2976,-1.2995,-1.3025,-1.3084,-1.31,-1.3111,-1.3186,-1.3222,-1.326,-1.3259,-1.3277,-1.3285,-1.3289,-1.3285,-1.3284,-1.3284,-1.3283,-1.3282,-1.3294,-1.3294,-1.3294,-1.3295,0,-1.2797,-1.2826,-1.2835,-1.2889,-1.2915,-1.2937,-1.2987,-1.3008,-1.3036,-1.307,-1.3105,-1.3151,-1.3196,-1.3208,-1.3235,-1.325,-1.3255,-1.3275,-1.3294,-1.3278,-1.3278,-1.3278,-1.329,-1.3291,-1.3292,-1.3292,0,0,-1.2744,-1.2824,-1.2826,-1.2852,-1.2911,-1.2934,-1.296,-1.3004,-1.3021,-1.3061,-1.3084,-1.3133,-1.3152,-1.318,-1.3212,-1.3226,-1.3219,-1.3245,-1.3246,-1.3238,-1.3239,-1.3223,-1.3222,-1.3238,-1.3239,-1.3239,-1.3235,0,-1.2733,-1.2779,-1.2821,-1.2853,-1.2881,-1.2926,-1.2949,-1.2988,-1.302,-1.305,-1.3088,-1.3121,-1.3144,-1.3161,-1.3177,-1.3216,-1.322,-1.3218,-1.3261,-1.3262,-1.3247,-1.3222,-1.3205,-1.3199,-1.3235,-1.3235,-1.3235,0,-1.2726,-1.2763,-1.2796,-1.2853,-1.2866,-1.2885,-1.293,-1.2957,-1.3003,-1.3026,-1.3058,-1.3092,-1.3123,-1.3139,-1.3183,-1.318,-1.3201,-1.3224,-1.3225,-1.323,-1.3247,-1.3226,-1.3198,-1.3197,-1.3236,-1.3236,-1.3236,0,-1.2684,-1.2742,-1.277,-1.2791,-1.2858,-1.287,-1.2899,-1.2945,-1.2969,-1.3008,-1.3025,-1.3067,-1.309,-1.3123,-1.3169,-1.3177,-1.3208,-1.3228,-1.3229,-1.3228,-1.3233,-1.3232,-1.3207,-1.3247,-1.3247,-1.3247,-1.3247,0,-1.2667,-1.2686,-1.2752,-1.2769,-1.2793,-1.2842,-1.2864,-1.2897,-1.2938,-1.2964,-1.3006,-1.3029,-1.3088,-1.3119,-1.3155,-1.3186,-1.3196,-1.3217,-1.3226,-1.3213,-1.321,-1.3226,-1.3228,-1.3247,-1.3247,-1.3247,-1.3247,0,-1.2623,-1.2668,-1.2702,-1.2763,-1.2778,-1.2793,-1.2846,-1.2865,-1.2901,-1.2933,-1.2943,-1.3,-1.3038,-1.3087,-1.3142,-1.3166,-1.3193,-1.3208,-1.3177,-1.3182,-1.318,-1.3179,-1.3165,-1.3166,-1.3204,-1.3204,-1.3204,0,-1.2609,-1.2624,-1.2687,-1.2706,-1.2733,-1.2764,-1.2789,-1.2839,-1.2863,-1.2917,-1.293,-1.2972,-1.3008,-1.3068,-1.3115,-1.3157,-1.3173,-1.3165,-1.318,-1.3166,-1.3173,-1.3171,-1.3173,-1.3161,-1.316,-1.316,-1.3159,0,-1.2578,-1.26,-1.2633,-1.2674,-1.2702,-1.2737,-1.2775,-1.2789,-1.2847,-1.2872,-1.2911,-1.2939,-1.2995,-1.3036,-1.3085,-1.3117,-1.3148,-1.3155,-1.3157,-1.3143,-1.3124,-1.3134,-1.3166,-1.3154,-1.3155,-1.3155,-1.3155,-1.3156,-1.2549,-1.2565,-1.2611,-1.2647,-1.268,-1.2714,-1.2735,-1.2774,-1.2807,-1.2856,-1.2884,-1.2923,-1.2971,-1.3039,-1.3069,-1.3102,-1.3113,-1.3116,-1.3117,-1.3117,-1.3113,-1.312,-1.3111,-1.3111,-1.3111,-1.3111,-1.3111,0,-1.252,-1.2552,-1.2585,-1.2635,-1.2664,-1.269,-1.2733,-1.2756,-1.2789,-1.283,-1.2865,-1.2911,-1.2952,-1.3003,-1.3047,-1.3063,-1.3079,-1.3073,-1.3072,-1.3079,-1.31,-1.3093,-1.306,-1.306,-1.306,-1.306,-1.306,-1.306,-1.2508,-1.2537,-1.2565,-1.2611,-1.2644,-1.2681,-1.2704,-1.2736,-1.2769,-1.2819,-1.2852,-1.2885,-1.2931,-1.2979,-1.3018,-1.3033,-1.3047,-1.3037,-1.3055,-1.3073,-1.3078,-1.3082,-1.3076,-1.304,-1.304,-1.3032,-1.3032,-1.3032]}]]